Flag for Switzerland Weather past 2 weeks in Sarnen, Obwalden, Switzerland

Now
69 °F

Mild.


Feels Like: 69 °F
Forecast: 67 / 97 °F
Wind: 1 mph from Northwest

Location: Giswil

Current Time: Jul 6, 2015 at 2:06:16 AM

Latest Report: Jul 6, 2015 at 1:00 AM


Visibility: N/A

Pressure: 30.07 "Hg

Humidity: 80%

Dew point: 62 °F

Location of SarnenLocation

Historic Weather in Sarnen — Graph

°F

Sarnen temperature yesterday

Maximum temperature yesterday: 93 °F (at 4:00 PM)
Minimum temperature yesterday: 64 °F (at 6:00 AM)
Average temperature yesterday: 80 °F

Past Weeks' High & Low Weather Summary

 TemperatureHumidityPressure
High94 °F (Jul 4, 5:00 PM)99% (Jun 22, 6:00 AM)30.25 "Hg (Jun 22, 6:00 AM)
Low47 °F (Jun 25, 6:00 AM)35% (Jul 5, 1:00 PM)29.71 "Hg (Jun 22, 11:00 PM)
Average69 °F71%30.09 "Hg
* Reported Midnight between Jun 20 and Jun 21 — Midnight between Jul 5 and Jul 6, Sarnen, Weather by CustomWeather, © 2015

Note: Actual official high and low records may vary slightly from our data, if they occured in-between our weather recording intervals... More about our weather records

Advertising

Sarnen weather history for previous 24 hours

 ConditionsComfort  
Time TempWeatherWind HumidityBarometerVisibility
12:00 AM
Mon, Jul 6
71 °FMild.2 mph75%30.05 "HgN/A
10:00 PM
Sun, Jul 5
80 °FWarm.2 mph57%29.99 "HgN/A
9:00 PM87 °FPleasantly warm.2 mph38%29.93 "HgN/A
8:00 PM85 °FWarm.10 mph44%29.92 "HgN/A
7:00 PM88 °FHot.3 mph60%29.91 "HgN/A
6:00 PM93 °FExtremely hot.2 mph42%29.87 "HgN/A
5:00 PM93 °FHot.1 mph42%29.89 "HgN/A
4:00 PM93 °FExtremely hot.1 mph39%29.90 "HgN/A
3:00 PM92 °FHot.1 mph37%29.94 "HgN/A
2:00 PM90 °FHot.1 mph38%29.96 "HgN/A
1:00 PM89 °FHot.2 mph35%29.97 "HgN/A
12:00 PM86 °FWarm.2 mph41%29.99 "HgN/A
11:00 AM83 °FWarm.2 mph49%30.01 "HgN/A
10:00 AM80 °FWarm.1 mph62%30.04 "HgN/A
9:00 AM77 °FMild.1 mph69%30.06 "HgN/A
8:00 AM73 °FMild.1 mph74%30.07 "HgN/A
7:00 AM68 °FMild.1 mph89%30.09 "HgN/A
6:00 AM64 °FMild.1 mph94%30.10 "HgN/A
4:00 AM67 °FMild.1 mph88%30.09 "HgN/A
3:00 AM68 °FMild.1 mph88%30.10 "HgN/A
2:00 AM68 °FMild.2 mph88%30.11 "HgN/A
Weather by CustomWeather, © 2015

See weather overviewHow to use our weather pages